Theta_e
356 356 357 357 356 357 360 359 358 358 358 357 357 358 358 357 356 357 358 358 358 359 359 359 361 362 360 360 360 360 360 359 359 357 356 355 353 349 343 339 341 345
356 357 357 358 357 358 360 360 359 358 358 357 357 358 358 358 358 358 358 359 359 359 359 360 361 361 360 358 359 360 361 360 360 359 357 356 354 353 348 344 343 343
357 357 357 358 359 358 360 361 360 358 357 357 357 358 360 359 360 359 358 359 360 360 360 361 361 360 359 358 359 360 361 361 359 359 358 357 356 355 352 349 347 346
357 357 357 357 358 359 359 360 361 359 357 356 357 357 359 360 361 360 359 360 360 361 360 360 360 360 360 358 358 359 360 360 360 359 359 358 357 356 355 351 350 350
358 357 357 357 357 358 358 360 361 361 359 357 357 358 358 359 360 361 360 360 360 360 360 360 360 360 360 359 358 358 360 360 361 360 359 360 358 357 356 353 351 351
359 358 357 357 357 358 357 357 359 361 361 360 358 359 360 360 359 360 360 361 360 360 360 360 360 360 360 360 359 359 360 361 361 361 360 360 359 358 356 356 353 352
360 360 359 358 357 357 358 356 356 358 362 363 362 360 361 362 361 360 360 360 360 360 360 360 360 360 360 360 360 360 361 361 362 361 361 360 360 360 358 357 355 353
359 360 359 359 359 357 358 356 356 356 358 362 363 363 362 362 362 361 360 359 359 361 361 361 361 361 361 362 361 362 361 363 363 363 362 361 361 360 359 357 357 355
360 360 359 360 359 359 358 357 356 355 356 358 360 362 363 361 360 361 360 360 359 359 361 362 362 362 362 363 363 363 363 363 363 362 362 362 361 361 360 359 358 357
360 360 359 359 360 358 358 357 357 356 356 356 357 358 361 362 361 360 359 361 360 359 360 361 362 363 363 363 363 363 363 363 363 363 362 362 361 361 361 359 359 358
361 360 360 359 359 358 358 357 358 357 355 355 356 356 358 360 362 361 360 360 361 361 360 359 360 362 363 363 364 363 363 362 362 362 362 362 362 361 361 360 359 358
361 361 360 359 359 358 358 358 357 357 356 355 355 356 356 358 360 361 360 359 360 362 363 361 360 361 362 363 364 364 363 362 362 361 361 361 362 362 361 360 359 358
362 361 360 360 359 358 357 357 357 357 357 356 355 355 356 358 359 361 361 360 359 360 362 364 363 362 362 363 365 364 363 362 362 361 360 361 361 362 361 360 359 359
362 361 360 359 358 358 357 357 356 356 355 356 356 356 356 358 359 360 361 361 360 360 360 362 363 363 363 364 364 364 364 363 363 363 362 361 360 360 361 361 360 360
361 361 360 359 359 357 357 356 355 355 354 355 356 357 356 357 358 360 361 361 361 360 360 361 363 364 364 364 364 364 364 363 364 363 363 362 362 361 360 360 360 360
362 361 360 360 359 358 357 356 356 355 355 355 355 356 356 356 356 357 360 361 361 363 363 362 362 363 364 364 363 363 364 364 363 363 363 363 363 362 361 360 360 360
363 362 361 360 360 360 359 358 357 357 356 356 356 356 357 356 356 356 357 360 361 362 362 363 363 363 364 364 364 364 364 363 363 363 363 363 363 362 362 361 360 359
364 362 362 360 360 360 360 359 359 358 357 356 356 358 359 358 357 356 357 359 361 361 362 363 363 363 363 363 364 364 364 364 363 363 363 363 363 364 362 361 361 360
365 364 363 362 360 360 360 360 359 358 358 357 357 358 359 360 360 359 358 358 360 362 363 362 363 364 363 363 363 363 363 363 363 363 363 363 364 363 363 362 362 361
368 366 364 363 363 361 360 361 360 359 358 358 358 357 358 361 362 362 360 359 360 362 364 363 363 363 364 364 363 363 363 363 363 363 363 363 363 363 363 363 362 361
368 368 366 365 364 363 362 361 361 361 359 358 359 358 357 359 361 362 362 361 360 361 363 365 365 364 364 365 364 364 363 363 363 363 363 362 362 362 363 362 362 362
369 369 367 367 366 365 364 362 362 362 360 359 359 358 358 358 359 361 363 363 363 361 361 364 365 364 365 365 364 365 365 365 365 364 363 363 362 362 362 363 362 362
370 370 368 368 367 367 366 365 363 364 362 360 359 358 359 359 358 359 361 362 364 363 362 362 363 364 366 365 365 366 367 367 366 364 363 363 363 363 362 362 363 363
371 371 370 369 369 369 368 366 366 364 363 363 361 359 359 359 359 359 359 360 363 364 364 363 362 363 365 366 367 368 368 368 366 365 364 364 363 364 363 362 363 363
372 372 371 371 370 370 369 369 367 366 366 365 363 361 359 359 360 360 361 361 361 362 363 364 363 363 363 364 367 368 369 370 367 366 365 364 364 364 364 363 364 363
372 372 372 372 372 371 370 371 369 368 367 367 366 364 362 361 361 361 362 362 362 362 363 363 364 364 363 364 365 366 368 369 368 367 365 364 364 364 364 365 363 364
Wind_Speed
39 38 36 36 36 34 33 34 34 32 32 32 32 32 33 32 30 29 29 29 28 27 26 24 24 24 22 21 20 20 21 21 20 19 19 19 18 16 16 17 17 17
39 39 37 36 36 35 33 34 35 34 32 32 32 32 32 32 31 30 30 29 29 28 27 26 25 25 24 23 22 21 21 22 21 20 21 21 21 19 18 18 18 18
40 39 39 38 37 37 35 34 35 36 34 32 32 31 30 31 31 30 29 30 30 30 29 28 27 26 25 25 24 23 22 23 23 22 22 23 23 22 21 19 19 19
41 41 41 40 39 38 37 34 34 36 36 34 33 32 31 30 29 29 30 30 31 31 31 30 29 27 27 26 26 26 24 24 24 24 23 24 25 25 23 22 21 21
43 43 42 41 39 38 37 35 34 34 36 35 34 33 32 31 30 30 30 31 32 32 32 31 31 30 29 28 28 28 27 26 25 25 26 25 26 27 26 24 24 23
42 42 42 41 39 38 38 37 36 35 35 35 35 34 33 33 33 32 32 32 33 33 33 32 32 31 30 30 30 29 29 29 28 28 28 28 27 28 27 26 26 25
42 42 42 41 40 39 39 40 39 37 35 35 35 35 34 33 34 34 34 34 33 33 34 33 33 33 32 31 31 31 30 30 30 30 30 29 28 28 29 28 28 28
43 43 42 41 40 40 40 40 40 39 37 35 34 35 35 34 34 34 35 35 35 34 34 34 33 33 33 32 33 33 32 31 31 31 31 30 29 29 30 29 29 29
41 41 41 40 39 40 41 40 40 40 38 37 36 35 36 36 35 34 34 35 36 35 34 34 34 34 34 34 34 34 34 33 32 32 32 32 31 31 31 30 29 29
39 39 39 39 39 39 40 39 39 39 39 38 38 36 35 36 37 36 34 34 36 37 36 35 35 35 35 35 35 35 35 35 34 33 33 33 33 33 32 31 31 31
39 38 38 39 40 39 39 39 38 38 38 38 38 37 36 36 36 37 36 35 36 37 38 37 36 36 36 36 36 36 36 36 35 34 34 33 34 34 34 33 33 33
40 40 40 41 41 41 40 39 38 37 37 39 38 38 37 36 36 37 38 38 37 37 37 38 38 37 37 37 36 36 36 36 36 35 35 34 34 34 35 35 35 35
41 42 42 43 43 43 41 39 38 37 37 38 39 38 37 36 36 37 38 39 39 39 37 38 38 38 38 38 37 36 36 36 36 36 36 35 35 35 35 36 36 36
42 43 43 43 43 43 42 40 39 39 38 37 38 39 38 37 37 38 38 39 39 40 39 38 38 39 39 38 38 37 37 36 36 36 36 36 36 35 35 36 36 37
42 42 43 42 42 42 42 41 40 40 39 38 38 40 40 39 38 38 38 39 39 39 40 39 39 39 40 40 39 39 38 37 37 37 36 36 36 36 36 36 37 38
41 40 41 41 41 41 42 41 40 40 40 40 40 41 41 41 39 38 37 39 39 38 39 39 39 40 41 42 42 41 40 38 38 38 37 37 36 36 36 37 38 39
39 39 39 40 40 40 41 41 41 40 40 40 40 40 41 41 40 39 38 38 38 39 39 39 41 41 41 43 43 43 42 40 39 38 38 38 38 37 38 39 39 39
39 39 39 39 40 40 40 41 41 40 40 40 40 40 39 39 40 41 40 38 38 39 40 40 42 43 43 43 44 44 44 42 40 39 38 39 39 39 39 39 38 39
39 39 39 39 40 40 40 40 40 40 39 39 39 39 38 38 39 40 40 38 37 38 40 41 42 43 44 44 45 45 46 44 42 40 39 39 39 40 40 39 39 39
38 38 39 39 39 39 38 38 39 40 39 38 38 37 37 37 38 39 39 39 38 38 40 41 43 44 44 45 46 46 46 47 46 42 40 39 39 40 40 39 40 39
38 38 38 38 37 38 38 37 38 38 39 38 37 37 38 38 38 38 39 40 41 39 38 40 42 44 44 45 46 46 46 47 47 45 42 40 39 39 39 40 40 40
38 37 37 36 36 36 36 37 37 37 38 37 36 36 37 37 37 38 39 40 41 41 39 38 40 42 44 45 45 45 46 46 47 46 44 41 40 39 39 39 39 40
37 37 36 35 35 35 35 36 36 36 36 36 36 34 34 35 37 38 39 39 39 40 40 39 39 40 42 44 45 44 44 45 46 46 44 43 41 38 37 38 39 40
36 36 35 35 35 35 34 34 34 35 35 35 36 35 35 35 37 37 37 38 38 39 41 41 40 39 39 40 42 43 44 45 45 44 43 42 39 37 37 38 39 40
35 35 35 35 35 34 33 33 33 33 33 34 35 35 34 34 34 34 35 36 37 39 39 39 39 39 37 36 36 37 40 44 43 41 41 39 37 37 38 40 41 40
34 34 35 34 34 33 32 32 32 31 31 32 32 33 33 32 31 31 32 34 36 36 37 37 37 36 35 34 32 31 34 39 41 40 39 37 36 36 37 38 39 39
Wind_Direction
197 196 197 198 199 201 200 200 202 203 200 201 204 205 205 206 203 204 208 211 213 215 215 213 209 210 208 205 209 214 214 215 215 214 213 215 215 213 212 211 204 198
198 198 198 198 199 201 202 202 202 203 202 202 204 205 206 205 204 204 208 210 213 215 214 213 212 213 212 208 207 213 215 214 217 216 215 217 218 217 215 212 211 210
199 199 199 199 200 200 201 203 203 204 204 204 204 205 204 205 205 206 208 210 212 213 213 213 214 215 216 212 208 210 213 213 216 217 217 219 219 218 218 215 214 215
200 201 202 202 202 201 201 201 202 203 204 205 206 206 206 206 207 208 210 211 212 213 213 212 213 215 216 216 212 211 213 214 215 216 218 219 219 219 219 216 215 217
202 202 203 204 203 202 201 201 202 202 203 205 206 207 209 208 208 209 211 211 212 213 212 212 213 214 216 217 216 214 214 214 215 215 217 218 219 220 220 216 215 218
203 203 204 204 204 203 202 203 203 202 202 203 204 205 208 209 209 210 210 211 212 212 212 212 212 213 215 216 217 217 217 216 215 214 216 219 220 220 220 217 216 218
204 204 204 204 204 204 204 205 205 204 203 202 203 204 205 207 209 210 211 211 212 212 212 212 211 211 213 215 216 217 218 218 217 215 216 219 221 221 219 218 218 219
205 205 204 204 204 204 206 206 206 206 204 202 202 204 205 206 207 209 210 210 211 212 212 212 212 212 212 213 214 215 217 217 217 216 217 218 220 221 220 219 219 220
206 206 205 204 204 204 206 207 207 207 206 204 204 204 205 207 208 209 210 210 211 211 211 212 213 213 213 213 214 215 215 216 216 216 217 218 219 221 222 221 220 221
207 207 206 205 205 206 207 207 207 207 206 206 206 206 206 207 209 210 210 210 211 211 211 212 213 214 214 215 216 216 216 216 216 216 217 218 219 220 221 221 221 222
207 207 206 207 207 208 209 208 208 207 207 207 207 206 207 208 208 209 210 210 211 212 212 213 214 215 216 216 217 218 218 218 217 217 218 219 220 221 220 221 222 223
206 206 206 207 208 209 209 209 208 207 207 207 207 207 207 209 209 208 210 211 212 213 213 214 215 216 217 218 218 218 219 220 219 219 219 220 221 222 222 221 222 223
206 206 207 207 208 209 209 209 208 208 208 207 207 207 207 208 209 209 210 212 213 214 214 215 216 216 218 219 218 218 219 220 220 220 221 222 223 224 224 224 223 224
207 207 207 208 208 208 208 208 208 208 208 208 207 207 208 208 209 210 211 212 214 214 215 216 216 217 218 219 219 219 219 219 221 221 221 222 224 225 226 226 226 226
208 208 208 208 208 208 207 208 208 207 207 207 207 208 209 210 210 211 211 212 213 215 215 216 217 218 218 219 219 219 219 220 221 222 223 223 224 226 227 227 228 228
207 208 208 208 207 207 207 207 208 207 207 207 208 209 209 210 211 211 212 212 213 214 215 216 217 219 219 220 220 220 219 220 221 222 223 224 224 225 227 228 228 229
206 207 208 208 208 207 207 207 207 207 207 207 208 209 209 209 210 211 212 213 213 214 215 216 218 220 221 221 222 222 221 221 221 223 223 224 225 225 226 228 229 230
204 206 207 208 208 208 207 207 207 207 207 207 208 208 208 208 208 210 212 213 213 214 215 217 220 221 222 222 223 224 224 223 223 224 224 224 225 226 227 228 229 230
202 203 205 207 208 208 208 207 207 207 208 208 208 208 207 207 208 209 210 212 212 213 214 217 221 223 223 223 224 225 225 226 226 226 226 226 226 227 228 228 229 230
200 201 204 206 207 208 208 208 208 208 209 209 208 208 207 207 208 208 209 211 212 214 214 216 221 224 223 224 225 226 227 227 227 228 229 230 230 230 230 230 230 231
199 200 202 204 205 206 207 208 209 209 210 210 209 208 209 209 208 209 210 211 213 215 215 216 220 224 225 225 226 227 228 228 228 229 231 233 233 234 234 234 233 233
199 199 201 202 203 204 206 207 208 209 210 210 210 211 211 211 211 211 211 212 213 215 217 218 221 223 225 227 227 228 228 227 228 229 231 233 235 236 236 237 237 236
199 199 199 201 201 202 205 206 208 209 210 210 210 211 212 212 213 213 214 214 214 215 218 221 223 224 226 228 229 228 227 226 227 228 231 233 236 237 238 240 240 239
199 199 199 199 200 202 204 205 207 209 210 210 210 212 213 214 214 215 216 216 216 217 219 222 225 226 227 228 229 228 227 226 226 227 230 234 236 238 240 242 243 243
199 199 199 199 200 202 203 204 206 208 210 211 211 213 215 216 216 216 217 218 219 221 222 224 227 229 230 230 231 229 228 227 225 226 230 233 236 238 240 243 244 245
200 199 199 199 200 202 203 204 206 207 208 210 211 213 216 217 218 218 219 220 221 223 225 227 229 231 232 234 235 233 231 228 225 225 228 231 234 237 240 243 245 247